Volver al catálogo

LUOJIA-1 01

ActivoCienciaSSO
NORAD 43485·PAYLOAD·🇨🇳 China

Lanzado Jun 2, 2018 desde Jiuquan Satellite Launch Center

Loading…

Próximos Pases (próximas 24 horas)

TLE

ActualizadoSource: Space-Track

Época: Sep 14, 2026, 23:33 UTC

1 43485U 18048B   26257.98172561  .00001701  00000-0  19329-3 0  9992
2 43485  97.8048 334.7146 0008828 176.6051 183.5227 14.87552024447564

Sigue LUOJIA-1 01 en tiempo real con AllMySat

Download on the App Store